When you browse on this site, cookies collect data to enhance your experience and personalize the content and advertising you see.
Visit our Privacy Policy to learn more. By continuing to use the site, you agree to this use of cookies and data.
  • In Schweiz
  • Länderverzeichnis
  • Für 7 Tage
  • Wassertemperatur
  • Wetterkarte
  • Widgets
  • user-avatar
    Anmelden

    Stündliche Wetter Moron de la Frontera

    Heute, 30 Mai, Samstag

    Zeit Temperatur Niederschläge Wind Luftdruck Luftfeuchtigkeit
    00:00 +20°C° 0 mm 2 m/S 742 mmHg 53%
    01:00 +20°C° 0 mm 2 m/S 742 mmHg 51%
    02:00 +20°C° 0 mm 1 m/S 742 mmHg 49%
    03:00 +20°C° 0 mm 1 m/S 742 mmHg 48%
    04:00 +20°C° 0 mm 1 m/S 742 mmHg 47%
    05:00 +19°C° 0 mm 2 m/S 742 mmHg 46%
    06:00 +19°C° 0 mm 2 m/S 742 mmHg 45%
    07:00 +23°C° 0 mm 2 m/S 742 mmHg 38%
    08:00 +26°C° 0 mm 3 m/S 743 mmHg 31%
    09:00 +29°C° 0 mm 3 m/S 743 mmHg 24%
    10:00 +30°C° 0 mm 4 m/S 743 mmHg 23%
    11:00 +33°C° 0 mm 5 m/S 742 mmHg 22%
    12:00 +34°C° 0 mm 5 m/S 742 mmHg 21%
    13:00 +34°C° 0 mm 5 m/S 742 mmHg 21%
    14:00 +34°C° 0 mm 5 m/S 741 mmHg 21%
    15:00 +34°C° 0 mm 6 m/S 741 mmHg 20%
    16:00 +33°C° 0 mm 5 m/S 741 mmHg 22%
    17:00 +32°C° 0 mm 5 m/S 740 mmHg 23%
    18:00 +29°C° 0 mm 5 m/S 740 mmHg 25%
    19:00 +27°C° 0 mm 4 m/S 740 mmHg 26%
    20:00 +25°C° 0 mm 4 m/S 741 mmHg 27%
    21:00 +22°C° 0 mm 3 m/S 741 mmHg 28%
    22:00 +22°C° 0 mm 3 m/S 741 mmHg 29%
    23:00 +21°C° 0 mm 3 m/S 741 mmHg 30%

    Morgen, 31 Mai, Sonntag

    Zeit Temperatur Niederschläge Wind Luftdruck Luftfeuchtigkeit
    00:00 +20°C° 0 mm 2 m/S 741 mmHg 31%
    01:00 +20°C° 0 mm 2 m/S 741 mmHg 31%
    02:00 +20°C° 0 mm 2 m/S 741 mmHg 31%
    03:00 +20°C° 0 mm 2 m/S 741 mmHg 31%
    04:00 +20°C° 0 mm 2 m/S 741 mmHg 33%
    05:00 +20°C° 0 mm 2 m/S 741 mmHg 35%
    06:00 +20°C° 0 mm 2 m/S 741 mmHg 37%
    07:00 +21°C° 0.2 mm 2 m/S 741 mmHg 37%
    08:00 +23°C° 0.2 mm 1 m/S 742 mmHg 38%
    09:00 +24°C° 0.2 mm 1 m/S 742 mmHg 39%
    10:00 +26°C° 0.2 mm 1 m/S 742 mmHg 36%
    11:00 +27°C° 0.2 mm 2 m/S 742 mmHg 33%
    12:00 +29°C° 0.2 mm 2 m/S 742 mmHg 30%
    13:00 +30°C° 0 mm 2 m/S 742 mmHg 29%
    14:00 +31°C° 0 mm 3 m/S 742 mmHg 28%
    15:00 +33°C° 0 mm 4 m/S 742 mmHg 27%
    16:00 +32°C° 0 mm 4 m/S 742 mmHg 29%
    17:00 +30°C° 0 mm 4 m/S 741 mmHg 30%
    18:00 +29°C° 0 mm 4 m/S 741 mmHg 32%
    19:00 +27°C° 0 mm 3 m/S 741 mmHg 39%
    20:00 +24°C° 0 mm 2 m/S 742 mmHg 45%
    21:00 +21°C° 0 mm 2 m/S 742 mmHg 51%
    22:00 +21°C° 0 mm 1 m/S 742 mmHg 56%
    23:00 +21°C° 0 mm 1 m/S 742 mmHg 61%

    übermorgen, 1 Juni, Montag

    Zeit Temperatur Niederschläge Wind Luftdruck Luftfeuchtigkeit
    00:00 +20°C° 0 mm 1 m/S 742 mmHg 66%
    01:00 +20°C° 0 mm 1 m/S 742 mmHg 66%
    02:00 +19°C° 0 mm 1 m/S 742 mmHg 66%
    03:00 +19°C° 0 mm 1 m/S 742 mmHg 66%
    04:00 +19°C° 0 mm 1 m/S 742 mmHg 65%
    05:00 +19°C° 0 mm 1 m/S 742 mmHg 63%
    06:00 +17°C° 0 mm 0 m/S 742 mmHg 62%
    07:00 +22°C° 0 mm 1 m/S 742 mmHg 54%
    08:00 +24°C° 0 mm 1 m/S 743 mmHg 47%
    09:00 +26°C° 0 mm 1 m/S 743 mmHg 39%
    10:00 +28°C° 0 mm 2 m/S 743 mmHg 36%
    11:00 +29°C° 0 mm 2 m/S 743 mmHg 33%
    12:00 +31°C° 0 mm 3 m/S 743 mmHg 31%
    13:00 +31°C° 0 mm 3 m/S 743 mmHg 30%
    14:00 +33°C° 0 mm 4 m/S 743 mmHg 29%
    15:00 +34°C° 0 mm 4 m/S 743 mmHg 29%
    16:00 +33°C° 0 mm 4 m/S 743 mmHg 33%
    17:00 +30°C° 0 mm 4 m/S 742 mmHg 37%
    18:00 +29°C° 0 mm 4 m/S 742 mmHg 40%
    19:00 +27°C° 0 mm 3 m/S 742 mmHg 51%
    20:00 +24°C° 0 mm 2 m/S 743 mmHg 62%
    21:00 +22°C° 0 mm 1 m/S 743 mmHg 72%
    22:00 +21°C° 0 mm 1 m/S 743 mmHg 74%
    23:00 +21°C° 0 mm 1 m/S 743 mmHg 75%

    2 Juni, Dienstag

    Zeit Temperatur Niederschläge Wind Luftdruck Luftfeuchtigkeit
    00:00 +20°C° 0 mm 1 m/S 743 mmHg 76%
    01:00 +20°C° 0 mm 1 m/S 743 mmHg 75%
    02:00 +19°C° 0 mm 1 m/S 743 mmHg 74%
    03:00 +17°C° 0 mm 0 m/S 742 mmHg 74%
    04:00 +17°C° 0 mm 0 m/S 743 mmHg 72%
    05:00 +17°C° 0 mm 0 m/S 743 mmHg 71%
    06:00 +17°C° 0 mm 0 m/S 743 mmHg 69%
    07:00 +20°C° 0 mm 0 m/S 743 mmHg 60%
    08:00 +24°C° 0 mm 1 m/S 743 mmHg 51%
    09:00 +27°C° 0 mm 1 m/S 744 mmHg 42%
    10:00 +29°C° 0 mm 1 m/S 744 mmHg 37%
    11:00 +30°C° 0 mm 2 m/S 744 mmHg 32%
    12:00 +33°C° 0 mm 3 m/S 744 mmHg 27%
    13:00 +34°C° 0 mm 3 m/S 743 mmHg 26%
    14:00 +34°C° 0 mm 4 m/S 743 mmHg 26%
    15:00 +35°C° 0 mm 5 m/S 742 mmHg 25%
    16:00 +33°C° 0 mm 5 m/S 742 mmHg 32%
    17:00 +30°C° 0 mm 5 m/S 742 mmHg 38%
    18:00 +29°C° 0 mm 5 m/S 741 mmHg 45%
    19:00 +26°C° 0 mm 4 m/S 742 mmHg 56%
    20:00 +24°C° 0 mm 3 m/S 742 mmHg 67%
    21:00 +20°C° 0 mm 3 m/S 742 mmHg 77%
    22:00 +19°C° 0 mm 2 m/S 742 mmHg 81%
    23:00 +18°C° 0 mm 2 m/S 742 mmHg 85%

    3 Juni, Mittwoch

    Zeit Temperatur Niederschläge Wind Luftdruck Luftfeuchtigkeit
    00:00 +17°C° 0 mm 2 m/S 742 mmHg 90%
    01:00 +17°C° 0 mm 2 m/S 742 mmHg 91%
    02:00 +17°C° 0 mm 2 m/S 742 mmHg 93%
    03:00 +16°C° 0 mm 2 m/S 742 mmHg 94%
    04:00 +16°C° 0 mm 2 m/S 742 mmHg 93%
    05:00 +17°C° 0 mm 2 m/S 742 mmHg 92%
    06:00 +17°C° 0 mm 3 m/S 742 mmHg 91%
    07:00 +18°C° 0 mm 3 m/S 742 mmHg 82%
    08:00 +20°C° 0 mm 4 m/S 742 mmHg 74%
    09:00 +21°C° 0 mm 4 m/S 742 mmHg 65%
    10:00 +22°C° 0 mm 5 m/S 742 mmHg 59%
    11:00 +25°C° 0 mm 5 m/S 742 mmHg 53%
    12:00 +26°C° 0 mm 5 m/S 742 mmHg 47%
    13:00 +27°C° 0 mm 5 m/S 741 mmHg 44%
    14:00 +28°C° 0 mm 5 m/S 740 mmHg 41%
    15:00 +29°C° 0 mm 6 m/S 740 mmHg 38%
    16:00 +27°C° 0 mm 6 m/S 740 mmHg 45%
    17:00 +26°C° 0 mm 6 m/S 739 mmHg 51%
    18:00 +24°C° 0 mm 6 m/S 739 mmHg 58%
    19:00 +22°C° 0 mm 5 m/S 739 mmHg 66%
    20:00 +20°C° 0 mm 5 m/S 739 mmHg 75%
    21:00 +18°C° 0 mm 4 m/S 740 mmHg 83%
    22:00 +18°C° 0 mm 4 m/S 740 mmHg 86%
    23:00 +18°C° 0 mm 4 m/S 740 mmHg 88%

    4 Juni, Donnerstag

    Zeit Temperatur Niederschläge Wind Luftdruck Luftfeuchtigkeit
    00:00 +17°C° 0 mm 4 m/S 740 mmHg 91%
    01:00 +17°C° 0 mm 3 m/S 739 mmHg 91%
    02:00 +17°C° 0 mm 3 m/S 739 mmHg 92%
    03:00 +17°C° 0 mm 2 m/S 739 mmHg 93%
    04:00 +17°C° 0 mm 3 m/S 739 mmHg 91%
    05:00 +17°C° 0 mm 3 m/S 739 mmHg 89%
    06:00 +17°C° 0 mm 3 m/S 739 mmHg 88%
    07:00 +18°C° 0.2 mm 3 m/S 739 mmHg 83%
    08:00 +20°C° 0.2 mm 4 m/S 739 mmHg 78%
    09:00 +21°C° 0.2 mm 4 m/S 739 mmHg 73%
    10:00 +22°C° 0.6 mm 5 m/S 739 mmHg 68%
    11:00 +23°C° 0.6 mm 6 m/S 739 mmHg 62%
    12:00 +26°C° 0.6 mm 7 m/S 739 mmHg 57%
    13:00 +26°C° 0.1 mm 8 m/S 738 mmHg 54%
    14:00 +26°C° 0.1 mm 8 m/S 738 mmHg 50%
    15:00 +27°C° 0.1 mm 8 m/S 738 mmHg 47%
    16:00 +26°C° 0 mm 8 m/S 738 mmHg 50%
    17:00 +24°C° 0 mm 7 m/S 738 mmHg 53%
    18:00 +23°C° 0 mm 7 m/S 738 mmHg 56%
    19:00 +22°C° 0 mm 6 m/S 738 mmHg 64%
    20:00 +20°C° 0 mm 5 m/S 738 mmHg 73%
    21:00 +18°C° 0 mm 4 m/S 738 mmHg 82%
    22:00 +18°C° 0 mm 3 m/S 738 mmHg 85%
    23:00 +17°C° 0 mm 3 m/S 738 mmHg 88%
    Mehr zeigen